FW7705 Weather Reports


Display with metric or nautical units.
time (UTC)temp
F
wind
direction
speed
MPH
gust
MPH
rain 1hr
in
rain 24hr
in
rain mn
in
humidity
%
barometer
mb
20260502182012 46 197 1.0 1.0 0.00 0.00 0.00 44 1012.4
20260502181510 45 92 0.0 0.0 0.00 0.00 0.00 45 1012.8
20260502181009 45 5 4.0 4.0 0.00 0.00 0.00 46 1012.8
20260502180505 45 305 8.0 9.0 0.00 0.00 0.00 46 1012.6
20260502170430 45 269 4.0 6.0 0.00 0.00 0.00 44 1012.8
20260502163913 45 218 2.0 3.0 0.00 0.00 0.00 44 1012.9
20260502163409 46 314 5.0 8.0 0.00 0.00 0.00 44 1012.9
20260502162908 46 334 9.0 13.0 0.00 0.00 0.00 48 1012.9
20260502162404 45 343 7.0 8.0 0.00 0.00 0.00 50 1013.0
20260502161901 46 358 11.0 11.0 0.00 0.00 0.00 45 1012.8
20260502161357 46 349 7.0 9.0 0.00 0.00 0.00 50 1012.9
20260502160855 46 353 10.0 10.0 0.00 0.00 0.00 50 1013.0
20260502160353 46 210 5.0 8.0 0.00 0.00 0.00 49 1013.0
20260502152328 44 350 9.0 9.0 0.00 0.00 0.00 49 1012.9
20260502151826 44 277 7.0 8.0 0.00 0.00 0.00 45 1012.9
20260502151322 44 290 6.0 7.0 0.00 0.00 0.00 47 1013.0
20260502150820 44 8 7.0 9.0 0.00 0.00 0.00 50 1012.9
20260502150316 45 305 6.0 9.0 0.00 0.00 0.00 45 1013.1
20260502130704 40 34 7.0 8.0 0.00 0.00 0.00 72 1013.2
20260502130202 41 271 6.0 8.0 0.00 0.00 0.00 71 1013.4
20260502123648 40 290 3.0 3.0 0.00 0.00 0.00 77 1013.1
20260502123145 40 310 4.0 4.0 0.00 0.00 0.00 73 1013.4
20260502122641 39 273 6.0 7.0 0.00 0.00 0.00 76 1013.3
20260502122138 39 319 8.0 9.0 0.00 0.00 0.00 73 1013.3
20260502121636 39 342 10.0 13.0 0.00 0.00 0.00 77 1013.1
20260502121133 39 328 5.0 7.0 0.00 0.00 0.00 76 1013.2
20260502120629 39 334 4.0 6.0 0.00 0.00 0.00 79 1013.1
20260502120126 39 358 8.0 11.0 0.00 0.00 0.00 78 1013.2
20260502115624 39 326 3.0 6.0 0.00 0.00 0.00 80 1013.1
20260502115120 39 327 3.0 6.0 0.00 0.00 0.00 84 1013.2
20260502114616 38 315 4.0 4.0 0.00 0.00 0.00 86 1013.0
20260502114114 38 313 3.0 4.0 0.00 0.00 0.00 85 1013.0
20260502113611 38 336 4.0 6.0 0.00 0.00 0.00 85 1013.1
20260502113109 38 305 5.0 7.0 0.00 0.00 0.00 86 1013.1
20260502112607 38 350 4.0 6.0 0.00 0.00 0.00 86 1013.1
20260502112104 38 317 4.0 6.0 0.00 0.00 0.00 87 1013.1
20260502111601 38 343 4.0 6.0 0.00 0.00 0.00 87 1013.1
20260502111059 38 306 2.0 3.0 0.00 0.00 0.00 88 1013.0
20260502110556 38 1 4.0 4.0 0.00 0.00 0.00 89 1013.1
20260502110053 38 313 4.0 6.0 0.00 0.00 0.00 91 1012.8
20260502105551 38 2 2.0 2.0 0.00 0.00 0.00 91 1012.9
20260502105048 37 328 2.0 2.0 0.00 0.00 0.00 91 1012.7
20260502104545 37 286 4.0 6.0 0.00 0.00 0.00 91 1012.8
20260502104043 37 334 3.0 4.0 0.00 0.00 0.00 92 1012.6
20260502103540 37 7 2.0 3.0 0.00 0.00 0.00 92 1012.6
20260502103038 38 4 1.0 2.0 0.00 0.00 0.00 92 1012.6
20260502102534 38 4 3.0 4.0 0.00 0.00 0.00 91 1012.7
20260502102031 38 7 2.0 2.0 0.00 0.00 0.00 92 1012.7
20260502101529 38 7 2.0 2.0 0.00 0.00 0.00 91 1012.7
20260502101027 38 292 3.0 3.0 0.00 0.00 0.00 91 1012.5
20260502100525 38 15 4.0 6.0 0.00 0.00 0.00 91 1012.7
20260502091500 38 335 3.0 3.0 0.00 0.00 0.00 93 1012.1
20260502090957 38 24 1.0 1.0 0.00 0.00 0.00 93 1012.0
20260502090454 38 325 3.0 3.0 0.00 0.00 0.00 93 1012.0
20260502071349 39 18 3.0 3.0 0.00 0.00 0.00 93 1011.5
20260502070847 39 12 2.0 2.0 0.00 0.00 0.00 93 1011.5
20260502070344 39 1 1.0 1.0 0.00 0.00 0.00 93 1011.6
20260502065843 39 13 1.0 2.0 0.00 0.00 0.00 93 1011.4
20260502065340 39 2 3.0 3.0 0.00 0.00 0.00 93 1011.4
20260502064838 39 337 2.0 2.0 0.00 0.00 0.00 94 1011.3
20260502064336 39 38 1.0 1.0 0.00 0.00 0.00 94 1011.3
20260502063833 39 9 4.0 4.0 0.00 0.00 0.00 94 1011.3
20260502063331 39 352 1.0 1.0 0.00 0.00 0.00 93 1011.5
20260502062828 39 18 0.0 1.0 0.00 0.00 0.00 92 1011.6
20260502062325 39 27 2.0 2.0 0.00 0.00 0.00 92 1011.5
20260502061824 39 359 2.0 3.0 0.00 0.00 0.00 92 1011.6
20260502061321 39 17 3.0 3.0 0.00 0.00 0.00 91 1011.4
20260502060817 39 353 3.0 3.0 0.00 0.00 0.00 92 1011.6
20260502060312 39 11 1.0 1.0 0.00 0.00 0.00 92 1011.9
20260502055810 39 303 2.0 3.0 0.00 0.00 0.00 92 1011.9
20260502055308 39 4 4.0 4.0 0.00 0.00 0.00 92 1011.4
20260502054807 39 340 4.0 4.0 0.00 0.00 0.00 93 1011.1
20260502054304 39 15 4.0 4.0 0.00 0.00 0.00 94 1011.3
20260502053802 40 6 1.0 1.0 0.00 0.00 0.00 94 1011.3
20260502053259 40 321 4.0 4.0 0.00 0.00 0.00 94 1011.4
20260502052756 40 309 4.0 6.0 0.00 0.00 0.00 94 1011.4
20260502052254 40 264 3.0 3.0 0.00 0.00 0.00 94 1011.4
20260502051752 40 290 4.0 4.0 0.00 0.00 0.00 95 1011.3
20260502051251 40 7 3.0 3.0 0.00 0.00 0.00 95 1011.5
20260502050746 40 0 3.0 4.0 0.00 0.00 0.00 95 1011.4
20260502050242 40 351 2.0 3.0 0.00 0.00 0.00 95 1011.8
20260502045740 40 350 2.0 3.0 0.00 0.00 0.00 95 1011.9
20260502045237 40 297 1.0 1.0 0.00 0.00 0.00 95 1011.9
20260502044733 40 301 1.0 2.0 0.00 0.00 0.00 95 1012.1
20260502044229 40 287 1.0 1.0 0.00 0.00 0.00 95 1011.8
20260502043727 41 319 1.0 2.0 0.00 0.00 0.00 95 1011.5
20260502043225 41 312 3.0 4.0 0.00 0.00 0.00 95 1011.4
20260502042724 41 332 3.0 4.0 0.00 0.00 0.00 94 1011.6
20260502042221 41 346 6.0 9.0 0.00 0.00 0.00 94 1011.5
20260502041719 41 346 2.0 2.0 0.00 0.00 0.00 94 1011.4
20260502041216 41 275 2.0 2.0 0.00 0.00 0.00 94 1011.4
20260502040713 41 356 4.0 4.0 0.00 0.00 0.00 94 1011.3
20260502040210 42 343 6.0 7.0 0.00 0.00 0.00 94 1011.3
20260502035706 42 336 4.0 9.0 0.00 0.10 0.10 96 1011.2
20260502035203 42 256 1.0 1.0 0.00 0.10 0.10 96 1010.9
20260502034700 42 180 0.0 0.0 0.00 0.10 0.10 95 1010.8
20260502034159 42 163 1.0 1.0 0.00 0.10 0.10 95 1010.9
20260502033656 42 160 0.0 0.0 0.00 0.10 0.10 95 1010.9
20260502033154 42 160 0.0 1.0 0.00 0.10 0.10 95 1011.1
20260502032650 42 170 0.0 0.0 0.05 0.10 0.10 95 1011.1
20260502032146 42 160 0.0 1.0 0.05 0.10 0.10 95 1011.3
20260502031644 42 185 2.0 2.0 0.00 0.09 0.09 95 1011.1
20260502031142 42 124 0.0 1.0 0.00 0.09 0.09 95 1011.3
20260502030641 42 149 0.0 0.0 0.00 0.09 0.09 94 1011.2
20260502030138 42 199 2.0 2.0 0.07 0.09 0.09 94 1011.1
20260502025635 42 184 1.0 2.0 0.07 0.09 0.09 94 1011.3
20260502025133 42 168 1.0 1.0 0.07 0.09 0.09 94 1011.3
20260502024631 42 275 5.0 7.0 0.00 0.08 0.08 94 1011.1
20260502024128 42 263 4.0 6.0 0.00 0.08 0.08 96 1011.3
20260502023626 42 184 0.0 0.0 0.00 0.08 0.08 97 1011.4
20260502023123 43 203 2.0 2.0 0.00 0.08 0.08 97 1011.4
20260502022620 43 175 0.0 0.0 0.07 0.08 0.08 97 1011.6
20260502022118 43 175 0.0 0.0 0.07 0.08 0.08 97 1011.4
20260502021615 43 175 1.0 1.0 0.00 0.07 0.07 97 1011.6
20260502021111 42 175 1.0 1.0 0.05 0.07 0.07 96 1011.3
20260502020609 43 175 0.0 1.0 0.05 0.07 0.07 96 1011.4
20260502020106 42 161 0.0 0.0 0.00 0.06 0.06 96 1011.4
20260502015604 42 161 0.0 0.0 0.00 0.06 0.06 96 1011.3
20260502015100 42 161 0.0 0.0 0.00 0.06 0.06 96 1011.1
20260502014557 42 161 0.0 0.0 0.00 0.06 0.06 96 1011.2
20260502014054 42 161 0.0 0.0 0.00 0.06 0.06 96 1011.1
20260502013549 43 155 0.0 1.0 0.00 0.06 0.06 96 1011.3
20260502013046 43 144 0.0 0.0 0.07 0.06 0.06 96 1011.2
20260502012543 43 144 0.0 0.0 0.07 0.06 0.06 95 1011.2
20260502012041 43 144 0.0 0.0 0.00 0.05 0.05 95 1011.3
20260502011537 43 141 0.0 0.0 0.00 0.05 0.05 95 1011.3
20260502011033 43 141 0.0 0.0 0.00 0.05 0.05 95 1011.2
20260502010531 43 141 0.0 0.0 0.00 0.05 0.05 95 1011.1
20260502010027 43 141 0.0 0.0 0.05 0.05 0.05 95 1011.1
20260502005525 43 141 0.0 0.0 0.05 0.05 0.05 95 1011.3
20260502005023 43 136 0.0 0.0 0.05 0.05 0.05 94 1011.0
20260502004518 43 136 0.0 0.0 0.07 0.04 0.04 94 1010.9
20260502004015 43 136 0.0 0.0 0.07 0.04 0.04 94 1011.1
20260502003513 43 136 0.0 0.0 0.00 0.03 0.03 93 1011.0
20260502003010 43 135 0.0 1.0 0.00 0.03 0.03 93 1011.0
20260502002506 43 146 0.0 0.0 0.00 0.03 0.03 93 1011.1
20260502002004 43 146 0.0 0.0 0.00 0.03 0.03 93 1011.2
20260502001501 43 150 0.0 0.0 0.05 0.03 0.03 92 1010.8
20260502000959 43 151 0.0 0.0 0.05 0.03 0.03 92 1011.0
20260502000457 43 208 0.0 0.0 0.05 0.03 0.03 92 1011.0
20260501235953 43 208 0.0 0.0 0.00 0.02 0.02 91 1011.0
20260501235449 43 208 0.0 1.0 0.00 0.02 0.02 90 1010.8
20260501234944 43 201 0.0 0.0 0.00 0.02 0.02 90 1010.8
20260501234441 44 203 2.0 2.0 0.00 0.02 0.02 89 1010.9
20260501233940 44 177 1.0 1.0 0.07 0.02 0.02 88 1010.6
20260501233437 44 155 0.0 1.0 0.07 0.02 0.02 88 1010.9
20260501232932 44 202 2.0 2.0 0.00 0.01 0.01 85 1010.9
20260501232430 44 196 2.0 2.0 0.00 0.01 0.01 84 1010.7
20260501231927 44 201 2.0 2.0 0.05 0.01 0.01 83 1010.8
20260501231425 45 208 2.0 2.0 0.05 0.01 0.01 81 1010.7
20260501230923 45 225 3.0 6.0 0.00 0.00 0.00 80 1010.7
20260501230422 45 183 1.0 1.0 0.00 0.00 0.00 80 1011.1
20260501225919 46 155 1.0 1.0 0.00 0.00 0.00 78 1010.7
20260501225416 46 36 1.0 2.0 0.00 0.00 0.00 75 1010.7
20260501224912 47 168 3.0 4.0 0.00 0.00 0.00 71 1010.6
20260501224410 47 192 2.0 3.0 0.00 0.00 0.00 68 1010.6
20260501223906 48 177 2.0 2.0 0.00 0.00 0.00 68 1010.3
20260501223402 48 188 1.0 2.0 0.00 0.00 0.00 66 1010.6
20260501222858 48 159 1.0 1.0 0.00 0.00 0.00 65 1010.4
20260501222355 48 196 2.0 3.0 0.00 0.00 0.00 64 1010.4
20260501221852 48 194 2.0 2.0 0.00 0.00 0.00 62 1010.4
20260501221349 49 269 4.0 6.0 0.00 0.00 0.00 60 1010.3
20260501220847 49 206 1.0 1.0 0.00 0.00 0.00 60 1010.4
20260501220344 50 121 2.0 4.0 0.00 0.00 0.00 59 1010.4
20260501215840 50 160 1.0 1.0 0.00 0.00 0.00 60 1010.4
20260501215337 50 186 0.0 0.0 0.00 0.00 0.00 60 1010.3
20260501214833 50 138 4.0 4.0 0.00 0.00 0.00 61 1010.3
20260501214328 50 141 1.0 2.0 0.00 0.00 0.00 59 1010.5
20260501213824 49 222 0.0 1.0 0.00 0.00 0.00 62 1010.4
20260501213321 49 215 2.0 2.0 0.00 0.00 0.00 60 1010.6
20260501212817 49 147 1.0 2.0 0.00 0.00 0.00 59 1010.4
20260501212313 49 214 2.0 2.0 0.00 0.00 0.00 58 1010.4
20260501211811 49 182 1.0 2.0 0.00 0.00 0.00 61 1010.5
20260501211308 49 174 2.0 2.0 0.00 0.00 0.00 61 1010.5
20260501210805 50 286 0.0 1.0 0.00 0.00 0.00 57 1010.4
20260501210301 50 248 2.0 3.0 0.00 0.00 0.00 56 1010.3
20260501205757 50 233 2.0 2.0 0.00 0.00 0.00 61 1010.5
20260501205255 50 162 2.0 4.0 0.00 0.00 0.00 58 1010.8
20260501204751 51 279 4.0 6.0 0.00 0.00 0.00 58 1010.6
20260501204248 51 250 1.0 1.0 0.00 0.00 0.00 54 1010.8
20260501203744 51 148 5.0 6.0 0.00 0.00 0.00 55 1010.6
20260501203242 51 249 3.0 4.0 0.00 0.00 0.00 54 1010.6
20260501202739 51 234 1.0 2.0 0.00 0.00 0.00 53 1010.6
20260501202236 50 180 1.0 2.0 0.00 0.00 0.00 57 1010.5
20260501201732 50 179 1.0 2.0 0.00 0.00 0.00 56 1010.6
20260501201229 50 164 1.0 1.0 0.00 0.00 0.00 57 1010.5
20260501200726 50 212 1.0 1.0 0.00 0.00 0.00 58 1010.6
20260501200223 50 198 2.0 3.0 0.00 0.00 0.00 54 1010.5
20260501195721 50 195 2.0 2.0 0.00 0.00 0.00 57 1010.7
20260501195216 50 289 4.0 4.0 0.00 0.00 0.00 56 1010.7
20260501194713 50 232 4.0 4.0 0.00 0.00 0.00 54 1010.6
20260501194208 50 254 3.0 3.0 0.00 0.00 0.00 56 1010.6
20260501193705 50 201 2.0 3.0 0.00 0.00 0.00 53 1010.6
20260501193204 50 292 2.0 2.0 0.00 0.00 0.00 53 1010.8
20260501192700 50 277 1.0 2.0 0.00 0.00 0.00 57 1010.4
20260501192158 51 249 4.0 6.0 0.00 0.00 0.00 54 1010.6
20260501191655 50 181 2.0 3.0 0.00 0.00 0.00 54 1011.0
20260501191152 50 178 3.0 3.0 0.00 0.00 0.00 55 1010.8
20260501190649 51 251 4.0 6.0 0.00 0.00 0.00 55 1010.9
20260501190144 51 239 5.0 6.0 0.00 0.00 0.00 53 1010.8
20260501185640 50 166 2.0 3.0 0.00 0.00 0.00 56 1010.9
20260501185136 50 245 5.0 7.0 0.00 0.00 0.00 53 1011.1
20260501184632 50 16 1.0 2.0 0.00 0.00 0.00 56 1010.8
20260501184127 51 321 4.0 4.0 0.00 0.00 0.00 52 1010.8
20260501183624 51 282 4.0 6.0 0.00 0.00 0.00 49 1010.9
20260501183120 51 297 5.0 7.0 0.00 0.00 0.00 50 1010.8
20260501182617 51 288 2.0 3.0 0.00 0.00 0.00 49 1010.8